Dewpoint
56 55 54 54 54 53 53 53 52 52 51 51 51 51 51 50 50 50 50 49 49 50 50 50 50 50 51 52 54 56 63 62
51 53 52 51 52 52 50 50 49 49 48 47 46 46 45 46 45 47 47 47 46 47 47 47 47 47 46 48 49 50 62 63
49 47 50 49 48 48 48 46 45 44 44 44 43 44 43 42 44 44 44 44 43 44 44 44 43 44 41 43 45 42 52 55
47 47 45 43 41 45 45 44 44 43 44 43 42 43 41 40 40 40 40 40 40 40 40 41 38 38 37 39 37 40 42 41
43 46 45 41 42 40 40 40 40 41 42 42 42 40 41 39 38 38 38 37 37 37 38 38 41 41 40 40 40 41 39 38
40 42 44 44 40 40 39 38 39 38 40 40 39 38 39 39 38 37 36 36 37 37 37 39 40 40 40 41 41 41 38 38
40 41 42 42 41 40 39 38 38 38 38 40 39 37 38 38 38 36 36 36 36 37 37 38 38 38 39 40 40 40 41 40
40 40 41 41 41 40 38 38 37 36 37 38 38 37 38 36 36 35 35 36 37 37 38 37 37 37 37 38 39 40 40 40
40 41 41 40 39 37 36 36 35 35 35 38 37 37 37 36 35 35 36 36 36 36 36 36 36 36 37 37 38 38 38 39
37 37 39 39 38 36 34 35 34 34 34 36 37 36 36 35 34 35 36 35 34 35 35 35 35 35 36 35 36 38 38 40
37 39 38 37 37 36 36 36 33 33 33 33 36 36 36 34 34 35 35 34 34 34 34 35 34 34 33 34 36 37 39 41
37 37 38 37 35 34 33 33 32 32 32 33 34 34 35 34 32 34 33 33 33 34 34 34 34 33 33 34 37 40 42 40
36 37 37 34 33 31 31 29 30 30 29 31 31 32 33 32 31 32 33 32 33 33 33 33 33 33 33 33 36 40 42 37
35 34 35 34 33 31 29 28 28 29 28 28 28 29 31 28 30 30 33 31 31 31 32 31 32 33 32 33 32 36 34 37
32 33 33 33 33 30 28 28 26 24 24 23 25 25 27 29 29 30 31 30 29 30 31 31 30 31 32 30 30 30 30 35
32 31 32 33 32 29 27 19 18 21 20 21 19 22 23 26 28 28 29 28 29 28 29 29 29 28 30 29 31 31 30 29
31 30 29 28 27 25 21 20 20 19 18 19 20 20 21 23 25 25 25 26 28 29 29 29 28 28 28 28 29 30 31 29
31 28 27 26 24 22 21 21 19 17 17 14 14 16 17 21 21 21 22 23 25 26 27 28 27 28 28 28 27 28 27 27
31 27 24 20 17 17 19 19 19 19 16 16 14 14 15 19 19 19 19 21 21 22 23 25 26 27 27 27 27 27 27 26
29 27 22 17 16 16 18 17 16 16 17 15 15 14 15 17 18 19 19 20 20 20 19 21 25 26 27 27 27 27 27 28
Wind_Speed
11 12 17 19 19 18 18 17 18 17 16 15 17 16 15 12 13 13 13 13 13 13 13 12 11 12 13 13 13 11 11 16
11 10 9 12 15 17 17 17 17 17 15 13 11 13 11 13 11 14 13 13 11 11 12 15 14 10 9 12 16 17 15 12
10 8 8 9 12 13 14 14 13 11 11 13 9 9 10 9 12 12 12 14 12 14 12 12 13 11 6 9 14 13 11 13
8 7 8 7 8 8 9 10 11 11 11 10 8 8 9 8 6 9 9 14 10 14 13 14 9 9 10 9 8 10 14 15
8 7 6 4 6 6 6 7 6 8 11 10 8 7 8 7 7 9 11 12 11 13 12 11 14 14 12 12 12 12 12 13
9 9 8 6 6 7 7 7 7 8 10 11 8 7 8 8 8 9 9 10 12 12 11 13 12 13 12 13 15 15 12 13
9 8 7 7 6 7 7 7 7 7 8 11 10 9 9 9 10 9 10 11 11 12 13 13 13 13 13 13 13 15 17 15
9 9 8 8 8 8 7 7 7 8 11 11 12 10 10 9 9 9 10 11 11 11 12 14 13 13 14 13 16 15 15 16
10 9 8 8 8 7 8 8 8 9 10 13 13 13 10 9 9 10 11 10 11 12 12 12 13 13 15 15 15 15 15 15
9 8 8 8 8 7 8 8 8 9 9 10 11 12 10 8 9 10 11 10 12 13 13 14 14 13 15 16 16 15 14 14
11 9 9 9 9 9 9 8 9 9 8 9 10 11 12 9 10 10 9 10 11 13 14 14 14 16 18 16 14 13 11 9
10 9 9 9 8 7 7 8 8 8 9 10 11 11 11 9 9 11 10 10 11 14 14 15 13 17 18 15 13 7 6 9
9 9 8 5 5 5 5 6 6 7 8 10 10 10 11 11 9 9 10 11 14 15 12 16 14 18 14 16 7 4 6 16
9 8 6 3 3 5 3 4 6 6 7 9 10 10 11 10 10 9 12 10 13 14 16 14 11 16 13 9 10 1 17 9
9 9 8 7 6 7 6 5 3 3 4 5 8 9 9 10 10 10 9 9 10 12 14 15 14 15 13 9 7 7 19 9
10 10 9 7 5 5 3 1 2 4 4 5 7 9 9 9 8 9 9 9 11 11 12 13 14 15 12 13 5 7 5 10
10 9 8 7 7 5 4 5 5 4 4 4 6 6 8 8 10 11 11 10 10 11 12 13 12 12 10 13 9 10 3 8
12 10 8 6 7 7 7 6 5 5 4 4 5 5 7 11 11 11 11 11 11 10 9 11 12 12 12 11 11 7 12 9
12 11 10 9 7 8 7 7 6 6 4 5 5 6 8 10 12 11 10 9 9 8 8 9 12 12 13 11 10 10 10 10
12 12 11 10 8 9 8 6 6 6 6 6 7 8 8 9 10 9 8 9 8 8 9 10 10 11 13 13 10 11 11 12
Wind_Direction
97 100 101 92 89 89 90 91 87 86 85 83 80 76 70 66 57 44 36 24 15 7 1 357 353 344 338 338 329 315 276 273
97 107 102 97 94 92 92 87 82 77 74 71 74 79 64 53 35 33 24 16 9 3 356 345 337 328 327 328 321 301 263 273
108 116 111 119 115 106 99 87 75 70 68 50 54 47 31 29 37 22 16 6 356 350 344 338 323 273 282 318 302 278 288 274
114 129 120 125 112 106 92 79 65 55 49 44 40 34 32 9 17 5 1 2 342 345 338 323 308 322 306 294 295 299 285 275
122 111 96 101 91 86 74 66 61 59 43 32 38 26 22 14 7 1 357 358 353 345 344 344 338 329 323 310 303 285 278 279
121 111 101 80 79 68 69 60 53 46 45 28 26 25 25 16 15 6 2 355 349 347 342 336 329 321 316 308 305 295 280 283
115 108 100 93 84 80 70 67 60 57 47 41 26 27 25 19 17 11 5 356 355 347 343 336 328 323 319 309 301 295 292 285
116 106 99 97 89 82 81 66 66 59 52 40 39 33 26 24 20 13 9 2 353 347 345 334 330 325 317 313 305 298 290 288
121 111 105 100 93 84 75 70 69 64 60 48 40 34 31 22 24 17 9 0 352 351 346 341 332 329 323 317 306 298 296 294
122 117 108 96 88 78 75 72 71 67 61 55 45 41 32 35 31 22 7 5 2 357 351 344 339 336 330 319 312 305 302 299
126 121 112 105 97 92 88 84 75 70 63 54 45 41 33 32 29 21 6 10 11 1 353 350 341 341 331 320 315 309 309 319
130 123 118 111 107 104 97 88 80 69 60 52 38 37 32 25 30 19 8 14 11 7 357 353 350 345 327 328 321 316 352 4
128 124 124 126 117 107 98 87 83 76 68 50 42 33 28 28 22 19 15 21 12 9 359 356 359 357 342 341 339 54 360 337
131 129 130 126 127 104 82 94 74 71 66 57 41 34 30 28 22 22 22 16 14 11 7 358 2 11 356 327 357 355 3 347
135 129 127 117 121 123 111 108 128 115 64 58 47 39 37 29 31 27 24 21 18 12 10 10 1 11 21 15 344 342 335 359
142 136 132 130 142 144 165 138 153 81 66 56 60 44 39 36 37 35 34 31 21 17 17 11 13 13 4 5 336 288 327 321
135 128 121 126 121 114 123 123 109 108 99 88 69 63 48 46 40 38 34 32 23 21 20 20 27 18 11 355 345 325 119 309
142 135 119 103 104 103 105 117 129 114 94 95 83 66 49 41 46 39 35 30 24 21 19 27 31 24 15 11 360 360 334 328
149 145 137 120 105 104 114 113 109 112 113 84 73 64 48 42 42 36 34 30 29 21 24 30 34 26 20 11 7 1 343 334
155 150 140 127 134 125 123 129 115 106 89 88 74 64 52 44 49 43 39 37 34 30 34 34 30 32 24 19 13 9 1 351